NOAA NWS Hourly Roundups by Site

Regional Weather Roundup for Omaha, NE

To Select Another Site Choose from List

Select Site:  

000
ASUS43 KOAX 081210
RWRNE

WEATHER ROUNDUP FOR NEBRASKA
NATIONAL WEATHER SERVICE OMAHA NE
700 AM CDT SAT MAY 08 2021

NOTES: SATELLITE DATA IS BEING USED TO AUGMENT CLOUD COVER ABOVE
       12000 FEET.
       "FAIR" INDICATES FEW OR NO CLOUDS BELOW 12,000 FEET WITH NO
       SIGNIFICANT WEATHER AND/OR OBSTRUCTIONS TO VISIBILITY.


NEZ001>004-019>022-054>056-081300-
NEBRASKA PANHANDLE

CITY           SKY/WX    TMP DP  RH WIND       PRES   REMARKS
SCOTTSBLUFF    CLOUDY    48  43  82 E8        29.67F
6HR MIN TEMP:  48; 6HR MAX TEMP:  59;

ALLIANCE       CLOUDY    48  45  89 S7        29.70R
6HR MIN TEMP:  48; 6HR MAX TEMP:  57;

CHADRON        CLOUDY    53  42  66 SE9       29.69F
6HR MIN TEMP:  52; 6HR MAX TEMP:  60;

GORDON         CLOUDY    48  38  66 CALM      29.75R
6HR MIN TEMP:  47; 6HR MAX TEMP:  54;

KIMBALL        MOCLDY    50  49  98 NW7       29.71R
SIDNEY         MOCLDY    45  44  97 E6        29.64S
6HR MIN TEMP:  45; 6HR MAX TEMP:  55;

$$

NEZ057>060-069>072-079>082-081300-
SOUTHWEST NEBRASKA

CITY           SKY/WX    TMP DP  RH WIND       PRES   REMARKS
NORTH PLATTE   MOCLDY    51  44  77 E14       29.69F
6HR MIN TEMP:  50; 6HR MAX TEMP:  56;

IMPERIAL       PTCLDY    46  43  89 SE10      29.64F
6HR MIN TEMP:  46; 6HR MAX TEMP:  56;

LEXINGTON      MOCLDY    51  46  81 SE14G21   29.72F
MCCOOK         PTCLDY    48  43  82 E12       29.67F
6HR MIN TEMP:  47; 6HR MAX TEMP:  56;

OGALLALA       MOCLDY    48  46  93 E9        29.67F
$$

NEZ005>010-023>029-035>040-094-081300-
NORTH CENTRAL NEBRASKA

CITY           SKY/WX    TMP DP  RH WIND       PRES   REMARKS
VALENTINE      CLOUDY    46  36  68 E20G28    29.71F
6HR MIN TEMP:  46; 6HR MAX TEMP:  54; 6HR PCP:  0.06;

AINSWORTH      LGT RAIN  45  33  62 E20       29.79F
BROKEN BOW     MOCLDY    51  42  71 SE14      29.74F
6HR MIN TEMP:  51; 6HR MAX TEMP:  55;

O`NEILL        MOCLDY    46  31  56 E16       29.81F
ORD            PTCLDY    52  38  58 E9        29.77S
6HR MIN TEMP:  52; 6HR MAX TEMP:  56;

$$

NEZ041-046>049-061>064-073>077-083>087-081300-
SOUTH CENTRAL NEBRASKA

CITY           SKY/WX    TMP DP  RH WIND       PRES   REMARKS
GRAND ISLAND   PTCLDY    54  44  69 SE14      29.79S
6HR MIN TEMP:  53; 6HR MAX TEMP:  57;

AURORA         PTCLDY    53  46  74 SE17      29.79F
HASTINGS       PTCLDY    53  46  77 SE14G24   29.77F
6HR MIN TEMP:  52; 6HR MAX TEMP:  59;

HEBRON         CLEAR     54  49  82 SE9       29.81F
HOLDREGE       PTCLDY    51  46  84 SE21      29.72F
KEARNEY        PTCLDY    52  45  77 SE17G25   29.75F
YORK           CLEAR     54  45  71 E15       29.80S
$$

NEZ011>018-030>034-042>045-081300-
NORTHEAST NEBRASKA

CITY           SKY/WX    TMP DP  RH WIND       PRES   REMARKS
NORFOLK        CLOUDY    54  24  31 E15G25    29.84F
6HR MIN TEMP:  48; 6HR MAX TEMP:  54;

ALBION         PTCLDY    52  29  41 E15G23    29.82S
BLAIR          CLOUDY    53  29  39 E15G23    29.90F
COLUMBUS       CLEAR     54  29  38 E15G22    29.84F
FREMONT        CLOUDY    55  29  37 E14       29.88F
TEKAMAH        CLOUDY    54  29  38 E15       29.92F
6HR MIN TEMP:  54; 6HR MAX TEMP:  57;

WAYNE          CLOUDY    51  28  40 E14       29.90F
$$

NEZ050>053-065>068-078-088>093-081300-
SOUTHEAST NEBRASKA

CITY           SKY/WX    TMP DP  RH WIND       PRES   REMARKS
LINCOLN        CLOUDY    58  34  40 SE14      29.85F
6HR MIN TEMP:  58; 6HR MAX TEMP:  60;

OMAHA EPPLEY   CLOUDY    55  29  36 SE17G26   29.91F
6HR MIN TEMP:  55; 6HR MAX TEMP:  59;

BEATRICE       CLEAR     55  46  72 SE10G16   29.84F
FALLS CITY     CLOUDY    54  46  74 E10       29.89R
6HR MIN TEMP:  54; 6HR MAX TEMP:  58; 6HR PCP:  0.02;

NEBRASKA CITY  CLOUDY    55  34  45 E13G22    29.89S
PLATTSMOUTH    CLOUDY    56  30  37 E18G24    29.89F
$$

NEZ044-045-051>053-067-081300-
OMAHA AREA

CITY           SKY/WX    TMP DP  RH WIND       PRES   REMARKS
OMAHA EPPLEY   CLOUDY    55  29  36 SE17G26   29.91F
6HR MIN TEMP:  55; 6HR MAX TEMP:  59;

BLAIR          CLOUDY    53  29  39 E15G23    29.90F
FREMONT        CLOUDY    55  29  37 E14       29.88F
MILLARD        CLOUDY    54  33  45 E8G16     29.89F
OFFUTT AFB     MOCLDY    54  32  43 SE15G23   29.90F
PLATTSMOUTH    CLOUDY    56  30  37 E18G24    29.89F
WAHOO          CLOUDY    55  29  36 E16       29.86S
$$


 

View Past Reports for Omaha, NE.

Products Courtesy of NOAA-NWS
NWS Information Parsing Script by Ken True at Saratoga Weather - Script by SE Lincoln Weather.